Xingchi-1 02A

operational
NORAD ID: 58496 Int'l Des: 2023-187 Owner: TYSK Country: CN
LEOCIRCULARRETROGRADESSO

About Xingchi-1 02A

Description loading...

Live Position

Loading 3D Globe...

Upcoming Passes

Altitude History

Altitude vs Time

uPlot chart will show altitude changes over time

Two-Line Element Set

1 58496U 23187A 26063.16221670 .00003499 00000-0 42706-3 0 9992
2 58496 97.9303 146.6872 0012867 124.9852 235.2572 14.83908042121542
Epoch: Mar 4, 2026 • Age: 19 hours

Current Status

Altitude 625.8 km
Velocity 7.55 km/s
Sub-Earth Point -26.16°S, 129.89°W
Launch Date Dec 4, 2023
Age 2.2 years
Type other

Technical Details

Classification Payload
Mass 35.00 kg
Dry Mass 35.00 kg
Total Mass 35.00 kg
Length 0.30 m
Diameter 0.30 m
Span 1.00 m
Shape Box + 2 pan
Manufacturer WEINA
Bus Type MN35
Phase Status In Orbit
Owner/State TYSK/CN

Large Constellations

Loading constellations...